Regional Weather Roundup
Issued by NWS

Home | Current Version | Previous Version | Text Only | Print | Product List | Glossary On
Versions: 1 2 3 4 5 6 7 8 9 10 11 12 13 14 15 16 17 18 19 20 21 22 23 24 25 26 27 28 29 30 31 32 33 34 35 36 37 38 39 40 41 42 43 44 45 46 47 48 49 50
000
ASUS43 KLSX 021507
RWRMO

WEATHER SUMMARY FOR MISSOURI
NATIONAL WEATHER SERVICE SPRINGFIELD MO
1000 AM CDT SUN AUG 02 2015

NOTE: "FAIR" INDICATES FEW OR NO CLOUDS BELOW 12,000 FEET WITH NO
       SIGNIFICANT WEATHER AND/OR OBSTRUCTIONS TO VISIBILITY.
       CURRENT SKY AND/OR WEATHER CONDITIONS ARE NOT AVAILABLE FOR
       CHILLICOTHE AND FARMINGTON.

MOZ001>031-035>038-043-044-053-054-021600-
...NORTHERN AND WESTERN MISSOURI...

CITY           SKY/WX    TMP DP  RH WIND       PRES   REMARKS
KANSAS CTY INT MOSUNNY   82  70  66 SW13      29.92F
KANSAS C DTWN  SUNNY     85  67  54 SW13      29.91F
LEE`S SUMMIT   SUNNY     83  67  58 SW14      29.94F
ST JOSEPH      SUNNY     83  74  74 SW9       29.89F
CHILLICOTHE      N/A     82  71  69 SW7       29.91F
KIRKSVILLE     LGT RAIN  78  68  71 SW8       29.91F

$$
MOZ066>068-077>081-088>096-101>105-021600-
...SOUTHWEST MISSOURI...

CITY           SKY/WX    TMP DP  RH WIND       PRES   REMARKS
SPRINGFIELD    SUNNY     84  67  56 SW9       30.00S
JOPLIN         SUNNY     87  65  47 SW8       29.99S

$$
MOZ032>034-039>042-045>050-055>058-069>072-021600-
...CENTRAL MISSOURI...

CITY           SKY/WX    TMP DP  RH WIND       PRES   REMARKS
COLUMBIA       SUNNY     81  70  69 SW7       29.96S
JEFFERSON CITY SUNNY     82  68  62 CALM      29.95F
ROLLA          SUNNY     82  69  64 SW8       29.98F
SEDALIA        SUNNY     82  69  64 SW9       29.97S
WHITEMAN AFB   SUNNY     83  69  62 SW14      29.94F
WARRENSBURG    SUNNY     81  68  65 S9        29.94F
OSAGE BEACH    SUNNY     82  66  57 SW6       29.99S

$$
MOZ051-052-059>065-021600-
...EAST CENTRAL MISSOURI...

CITY           SKY/WX    TMP DP  RH WIND       PRES   REMARKS
ST LOUIS INTL  MOSUNNY   87  67  51 SW10      29.95F HX  90
SPIRIT OF STL  MOSUNNY   84  71  65 SW8       29.94S
ST CHARLES     SUNNY     84  69  60 SW6       29.93F

$$
MOZ072>076-082>087-097>100-106>115-021600-
...SOUTH CENTRAL AND SOUTHEAST MISSOURI...

CITY           SKY/WX    TMP DP  RH WIND       PRES   REMARKS
CAPE GIRARDEAU SUNNY     82  71  69 SW6       29.99S
FARMINGTON     SUNNY     82  72  69 SW9       30.03F
POPLAR BLUFF   SUNNY     83  73  72 VRB5      29.97S
WEST PLAINS    SUNNY     83  66  56 SW6       30.03F

$$



USA.gov is the U.S. government's official web portal to all federal, state and local government web resources and services.